User: anonymous   Login
Location: Unspecified
(35.2598°N, 0.0000°E)
Time: 06:03:00
(UTC+00:00)
Language:

Cosmos 2239 Rocket - Orbit

View from above orbital plane
View from above orbital plane
View from above satellite
View from above satellite

Ground track
Ground track

The orbit is defined by the following mean orbital elements,

1 22591U          26088.20356867 +.00000000 +00000-0 +65831-4 0 00000
2 22591  82.9326 169.6547 0025881  35.8432  22.5305 13.77744472    01
Epoch (UTC): 29 March 2026 04:53:08
Eccentricity: 0.0025881
inclination: 82.9326°
perigee height: 953 km
apogee height: 991 km
right ascension of ascending node: 169.6547°
argument of perigee: 35.8432°
revolutions per day: 13.77744472
mean anomaly at epoch: 22.5305°

The dashed part of the orbit path shows where the satellite is in the earth's shadow,  

DLR